Home > Weather > Koudougou > Past weeks

Flag for Burkina Faso Weather for the Past 2 Weeks in Koudougou, Burkina Faso

Now
90 °F

Clear.


Feels Like: 86 °F
Forecast: 63 / 94 °F
Wind: 15 mph from East

Location: Ouagadougou Airport

Current Time: Feb 8, 2016 at 1:13:41 PM

Latest Report: Feb 8, 2016 at 12:00 PM


Visibility: 5 mi

Pressure: 30.07 "Hg

Humidity: 13%

Dew point: 32 °F

Location of KoudougouLocation

Historic Weather in Koudougou — Graph

°F

Koudougou Temperature Yesterday

Maximum temperature yesterday: 91 °F (at 2:00 PM)
Minimum temperature yesterday: 70 °F (at 1:00 AM)
Average temperature yesterday: 80 °F

High & Low Weather Summary for the Past Weeks

 TemperatureHumidityPressure
High93 °F (Feb 6, 3:00 PM)37% (Feb 8, 7:00 AM)30.15 "Hg (Feb 8, 7:00 AM)
Low61 °F (Feb 1, 6:00 AM)9% (Feb 1, 2:00 PM)29.89 "Hg (Feb 2, 4:00 PM)
Average76 °F19%30.03 "Hg
* Reported Jan 24 11:00 AM — Feb 8 11:00 AM, Koudougou, Weather by CustomWeather, © 2016

Note: Actual official high and low records may vary slightly from our data, if they occured in-between our weather recording intervals... More about our weather records

Advertising

Koudougou Weather History for the Previous 24 Hours

 ConditionsComfort  
Time TempWeatherWind HumidityBarometerVisibility
11:00 AM
Mon, Feb 8
86 °FClear.17 mph14%30.09 "Hg5 mi
10:00 AM82 °FClear.18 mph16%30.12 "Hg5 mi
9:00 AM79 °FClear.15 mph18%30.12 "Hg4 mi
8:00 AM72 °FDuststorm.9 mph25%30.09 "Hg2 mi
7:00 AM63 °FDuststorm.5 mph37%30.09 "Hg2 mi
6:00 AM63 °FClear.5 mph34%30.07 "Hg4 mi
5:00 AM64 °FClear.5 mph32%30.04 "Hg4 mi
4:00 AM66 °FClear.3 mph30%30.04 "Hg5 mi
3:00 AM64 °FClear.3 mph34%30.04 "Hg5 mi
2:00 AM66 °FClear.5 mph30%30.04 "Hg5 mi
1:00 AM68 °FClear.7 mph28%30.07 "Hg5 mi
12:00 AM70 °FClear.3 mph29%30.07 "Hg5 mi
10:00 PM
Sun, Feb 7
73 °FClear.7 mph23%30.07 "Hg5 mi
9:00 PM75 °FClear.7 mph21%30.07 "Hg4 mi
8:00 PM77 °FDuststorm.7 mph19%30.04 "Hg2 mi
7:00 PM82 °FDuststorm.7 mph16%30.01 "Hg2 mi
6:00 PM86 °FDuststorm.12 mph13%30.01 "Hg2 mi
5:00 PM90 °FDuststorm.13 mph12%30.01 "Hg2 mi
4:00 PM90 °FDuststorm.16 mph12%29.98 "Hg2 mi
3:00 PM91 °FDuststorm.17 mph11%30.01 "Hg1 mi
2:00 PM91 °FDuststorm.18 mph12%30.01 "Hg1 mi
1:00 PM90 °FDuststorm.15 mph13%30.04 "Hg1 mi
Weather by CustomWeather, © 2016

See weather overviewHow to use our weather pages